Lilo

operational
NORAD ID: 64562 Int'l Des: 2025-135AL Owner: HUBN/ENDUR Country: US
LEOCIRCULARRETROGRADESSO

关于 Lilo

正在加载描述...

实时位置

正在加载3D地球...

即将过境

高度历史

Altitude vs Time

uPlot chart will show altitude changes over time

两行轨道根数

1 64562U 25135AL 26063.11551070 .00003439 00000-0 33672-3 0 9999
2 64562 97.7626 178.5742 0001355 119.2535 240.8820 14.92946652 38199
Epoch: Mar 4, 2026 • Age: 11 hours

当前状态

高度 598.6 km
速度 7.57 km/s
星下点 60.92°N, 163.78°W
发射日期 Jun 23, 2025
运行时间 0.6 years
类型 other

技术详情

分类 Payload
质量 22.00 kg
干质量 22.00 kg
总质量 22.00 kg
长度 0.50 m
直径 0.20 m
跨度 2.00 m
形状 Box+ 4 pan
制造商 ENDUR
平台类型 Cubesat 16U
阶段状态 In Orbit
所有者/国家 HUBN/ENDUR/US

大型星座

Loading constellations...